Lid_Strength_Index
6 6 7 9 10 7 9 8 11 8 8 6 5 5 5 5 5 5 4 4 3 3 3 2 2 1 1 1 1 1 1 1
6 6 6 7 6 10 9 13 13 10 9 9 6 6 5 5 5 5 4 4 4 3 3 2 2 1 1 1 1 1 1 1
7 8 7 8 8 8 7 8 11 12 10 5 6 5 5 5 4 5 5 4 3 3 2 2 1 2 1 1 1 1 1 1
7 6 5 6 6 7 9 10 9 9 10 5 5 4 4 4 4 4 4 4 4 3 3 2 2 2 2 2 2 1 1 1
8 7 6 7 6 6 6 7 9 11 9 4 4 4 4 4 5 5 5 5 4 4 3 2 3 3 2 2 2 1 1 1
10 8 7 8 7 6 7 9 9 9 8 6 5 5 5 5 4 6 5 5 4 4 4 3 3 3 3 3 2 1 1 1
7 6 6 7 7 7 7 7 9 8 8 6 5 6 5 5 5 6 6 5 4 5 4 3 3 4 3 4 4 3 4 4
8 7 7 8 7 7 7 7 7 7 7 5 5 4 5 5 6 6 6 5 4 4 4 3 3 3 3 3 4 3 3 4
10 7 7 10 7 7 7 6 6 8 6 5 5 6 6 6 5 5 5 5 5 4 4 3 2 2 2 3 3 3 2 2
10 8 13 7 5 6 7 6 5 6 6 5 6 5 5 5 5 5 4 4 4 4 3 3 2 2 1 1 1 2 1 1
11 10 8 7 6 7 8 7 5 6 6 5 5 5 5 4 4 4 3 3 3 3 2 2 2 1 2 1 1 2 2 1
9 12 13 8 6 5 5 10 5 5 6 5 5 8 7 4 3 3 3 2 3 2 2 2 2 1 2 2 2 2 2 1
10 11 9 6 5 5 11 10 5 5 5 5 6 6 4 3 3 3 3 3 2 2 3 2 1 1 2 2 2 1 0 0
9 11 12 5 6 8 6 4 4 4 4 5 4 4 4 3 3 3 3 3 2 3 3 2 1 1 2 2 1 0 0 0
8 8 6 4 5 4 3 4 4 4 4 4 4 4 3 4 3 3 3 3 2 2 3 2 1 1 2 1 0 0 0 0
7 6 5 4 3 3 3 4 3 3 3 3 4 4 4 3 3 3 3 3 2 2 3 3 1 1 1 0 0 1 1 1
7 5 5 4 3 3 3 3 3 3 3 3 3 4 3 3 3 3 3 2 2 2 2 2 1 1 0 0 0 1 1 1
8 4 5 4 3 3 3 3 3 3 3 3 3 3 3 3 3 3 2 2 2 2 2 2 1 1 0 -0 0 1 1 1
5 3 3 3 3 2 3 3 3 3 3 3 2 2 3 4 3 3 2 2 2 2 2 1 1 1 0 0 0 1 1 1